Location: Amsterdam
(30.7274°N, 84.4357°W)
Time: 06:12:23
(UTC+00:00)

Courier 1B Rocket - Pass Details

Date: 16 February 2026
Orbit: 920 x 1201 km, 28.2° (Epoch: 9 March)

Event Time Altitude Azimuth Distance (km) Brightness Sun altitude
Rises 05:53:45 0° 275° (W) 3,728 - -71.6°
Reaches altitude 10° 05:56:27 10° 269° (W) 2,818 - -71.6°
Maximum altitude 06:03:02 48° 197° (SSW) 1,390 - -71.4°
Drops below altitude 10° 06:10:04 10° 126° (SE) 3,013 - -71.1°
Sets 06:13:03 0° 121° (ESE) 4,008 - -70.9°
